EW3530 Weather Reports


Display with metric or nautical units.
time (UTC)temp
F
wind
direction
speed
MPH
gust
MPH
rain 1hr
in
rain 24hr
in
rain mn
in
humidity
%
barometer
mb
20260506221643 46 18 4.0 5.0 0.00 0.83 0.83 99 1015.5
20260506221141 46 77 2.0 2.0 0.00 0.83 0.83 99 1015.3
20260506220638 45 87 2.0 2.0 0.00 0.83 0.83 99 1015.3
20260506220133 46 309 3.0 5.0 0.00 0.83 0.83 99 1015.0
20260506215630 45 359 5.0 7.0 0.00 0.83 0.83 99 1014.4
20260506215125 46 57 5.0 7.0 0.00 0.83 0.83 99 1014.6
20260506214622 46 160 2.0 3.0 0.00 0.83 0.83 99 1014.2
20260506214120 46 3 3.0 3.0 0.00 0.83 0.83 99 1014.6
20260506213618 46 318 6.0 8.0 0.00 0.83 0.83 99 1014.6
20260506213115 46 70 2.0 5.0 0.00 0.83 0.83 99 1014.3
20260506212612 46 146 8.0 11.0 0.12 0.83 0.83 99 1014.1
20260506212107 47 22 4.0 7.0 0.42 0.83 0.83 99 1014.3
20260506211602 47 334 3.0 5.0 0.54 0.81 0.81 98 1014.3
20260506211100 48 10 5.0 7.0 0.78 0.78 0.78 98 1014.1
20260506210556 49 327 8.0 13.0 0.97 0.73 0.73 98 1013.5
20260506210053 50 12 4.0 5.0 0.61 0.64 0.64 98 1013.4
20260506205549 52 342 10.0 11.0 0.14 0.56 0.56 98 1013.3
20260506205044 53 14 5.0 6.0 0.00 0.54 0.54 97 1013.1
20260506204543 54 336 5.0 6.0 0.00 0.54 0.54 97 1013.2
20260506204040 60 12 3.0 3.0 0.00 0.54 0.54 97 1013.2
20260506203538 60 116 0.0 0.0 0.00 0.54 0.54 97 1013.0
20260506203034 60 182 5.0 8.0 0.00 0.54 0.54 97 1013.2
20260506202532 60 170 4.0 5.0 0.00 0.54 0.54 97 1013.1
20260506202028 60 144 3.0 3.0 0.00 0.54 0.54 97 1013.1
20260506201526 60 158 1.0 2.0 0.00 0.54 0.54 97 1013.0
20260506201022 60 138 3.0 3.0 0.00 0.54 0.54 97 1013.4
20260506200518 60 214 5.0 8.0 0.00 0.54 0.54 97 1013.4
20260506200015 60 197 4.0 6.0 0.00 0.54 0.54 97 1013.4
20260506195512 60 182 2.0 2.0 0.05 0.54 0.54 97 1013.4
20260506195008 60 175 1.0 2.0 0.05 0.54 0.54 97 1013.5
20260506194506 60 293 3.0 3.0 0.00 0.53 0.53 97 1013.7
20260506194002 60 87 1.0 2.0 0.00 0.53 0.53 97 1013.5
20260506193500 60 331 1.0 1.0 0.00 0.53 0.53 97 1013.8
20260506192956 60 110 1.0 1.0 0.07 0.53 0.53 97 1013.5
20260506192453 60 276 1.0 2.0 0.07 0.53 0.53 97 1013.6
20260506191944 60 114 0.0 1.0 0.00 0.52 0.52 97 1013.6
20260506191441 60 134 1.0 2.0 0.05 0.52 0.52 97 1013.5
20260506190937 60 149 3.0 3.0 0.05 0.52 0.52 97 1013.6
20260506190434 60 87 2.0 2.0 0.00 0.51 0.51 97 1013.6
20260506185931 60 120 3.0 3.0 0.07 0.51 0.51 97 1013.5
20260506185428 60 164 2.0 5.0 0.19 0.51 0.51 97 1013.7
20260506184925 60 10 3.0 5.0 0.17 0.50 0.50 97 1013.5
20260506184422 60 197 3.0 3.0 0.05 0.48 0.48 97 1013.5
20260506183919 60 175 5.0 7.0 0.07 0.47 0.47 97 1013.8
20260506183414 60 222 2.0 3.0 0.07 0.47 0.47 97 1013.8
20260506182912 60 210 1.0 2.0 0.05 0.46 0.46 97 1013.8
20260506182409 60 92 2.0 3.0 0.05 0.46 0.46 97 1013.8
20260506181907 60 283 5.0 5.0 0.12 0.46 0.46 97 1014.0
20260506181404 60 167 2.0 2.0 0.12 0.45 0.45 97 1013.9
20260506180901 60 134 3.0 3.0 0.05 0.44 0.44 97 1013.9
20260506180357 60 144 3.0 6.0 0.12 0.44 0.44 97 1013.9
20260506175854 60 98 2.0 3.0 0.14 0.43 0.43 97 1014.0
20260506175350 60 210 3.0 5.0 0.12 0.42 0.42 97 1013.9
20260506174847 60 135 0.0 1.0 0.12 0.41 0.41 97 1014.0
20260506174345 60 122 1.0 2.0 0.12 0.40 0.40 97 1014.1
20260506173843 60 249 4.0 7.0 0.05 0.39 0.39 97 1014.0
20260506173339 60 188 7.0 10.0 0.07 0.38 0.38 97 1014.0
20260506172836 60 248 3.0 5.0 0.12 0.38 0.38 97 1013.9
20260506172332 60 174 3.0 5.0 0.12 0.37 0.37 97 1013.9
20260506171830 60 88 3.0 5.0 0.12 0.36 0.36 97 1013.9
20260506171327 60 179 4.0 5.0 0.05 0.35 0.35 97 1014.1
20260506170825 60 153 3.0 5.0 0.12 0.35 0.35 97 1014.1
20260506170320 60 159 3.0 5.0 0.12 0.34 0.34 97 1014.2
20260506165820 60 159 3.0 5.0 0.12 0.33 0.33 97 1014.4
20260506165317 60 185 4.0 6.0 0.12 0.32 0.32 97 1014.4
20260506164813 60 15 2.0 2.0 0.12 0.31 0.31 98 1014.3
20260506164310 60 138 1.0 1.0 0.19 0.31 0.31 98 1014.4
20260506163807 60 178 2.0 3.0 0.19 0.30 0.30 98 1014.7
20260506163302 60 122 4.0 6.0 0.12 0.28 0.28 98 1014.6
20260506162758 60 107 3.0 3.0 0.12 0.27 0.27 98 1014.7
20260506162256 59 158 3.0 3.0 0.12 0.26 0.26 98 1014.7
20260506161753 59 174 0.0 1.0 0.12 0.25 0.25 98 1014.7
20260506161250 59 163 2.0 3.0 0.12 0.24 0.24 98 1015.0
20260506160748 59 126 4.0 6.0 0.19 0.23 0.23 97 1015.2
20260506160244 58 168 6.0 8.0 0.12 0.22 0.22 97 1015.0
20260506155743 58 140 5.0 6.0 0.12 0.20 0.20 97 1015.2
20260506155239 58 142 4.0 7.0 0.12 0.20 0.20 97 1015.1
20260506153347 58 93 4.0 5.0 0.07 0.16 0.16 97 1015.3
20260506152844 57 170 1.0 1.0 0.12 0.16 0.16 97 1015.4
20260506152341 57 127 1.0 2.0 0.12 0.15 0.15 97 1015.3
20260506151839 57 113 2.0 2.0 0.12 0.14 0.14 97 1015.3
20260506151335 57 118 2.0 2.0 0.05 0.13 0.13 97 1015.3
20260506150833 57 174 2.0 2.0 0.07 0.12 0.12 97 1015.7
20260506150329 57 126 1.0 2.0 0.12 0.12 0.12 97 1015.6
20260506145826 57 138 2.0 2.0 0.12 0.11 0.11 97 1015.7
20260506145323 57 120 1.0 1.0 0.12 0.10 0.10 97 1016.0
20260506144820 57 79 0.0 0.0 0.12 0.09 0.09 97 1015.8
20260506144317 57 1 0.0 1.0 0.12 0.08 0.08 97 1016.1
20260506143815 57 66 0.0 0.0 0.12 0.07 0.07 97 1016.0
20260506143312 56 64 0.0 0.0 0.14 0.06 0.06 96 1016.2
20260506142810 56 63 0.0 0.0 0.07 0.05 0.05 96 1016.3
20260506142308 57 356 1.0 1.0 0.05 0.04 0.04 96 1016.1
20260506141806 57 101 1.0 1.0 0.05 0.04 0.04 96 1015.9
20260506141304 57 112 1.0 1.0 0.07 0.03 0.03 96 1016.0
20260506140801 56 106 1.0 2.0 0.07 0.03 0.03 96 1016.3
20260506140258 56 136 2.0 2.0 0.00 0.02 0.02 96 1016.4
20260506135755 57 126 1.0 1.0 0.00 0.02 0.02 96 1016.3
20260506135251 56 136 0.0 0.0 0.00 0.02 0.02 96 1016.2
20260506134748 56 119 2.0 2.0 0.05 0.02 0.02 96 1015.8
20260506134244 56 85 1.0 1.0 0.05 0.02 0.02 96 1016.0
20260506133742 56 85 0.0 0.0 0.00 0.01 0.01 95 1015.8
20260506133238 56 80 1.0 1.0 0.00 0.01 0.01 95 1016.1
20260506132735 56 89 0.0 0.0 0.00 0.01 0.01 95 1015.9
20260506132232 56 89 1.0 1.0 0.00 0.01 0.01 95 1015.7
20260506131730 56 89 0.0 0.0 0.00 0.01 0.01 95 1015.8
20260506131226 56 89 1.0 1.0 0.00 0.01 0.01 94 1015.9
20260506130723 56 89 0.0 0.0 0.00 0.01 0.01 94 1016.0
20260506130220 56 89 0.0 0.0 0.00 0.01 0.01 94 1015.8
20260506125718 56 89 0.0 0.0 0.00 0.01 0.01 94 1015.8
20260506125215 55 89 0.0 1.0 0.07 0.01 0.01 93 1016.1
20260506124713 55 75 0.0 0.0 0.07 0.01 0.01 93 1015.9
20260506124211 55 75 0.0 0.0 0.00 0.00 0.00 93 1016.1
20260506123708 55 75 0.0 0.0 0.00 0.00 0.00 92 1016.3
20260506123207 54 75 0.0 0.0 0.00 0.00 0.00 93 1016.6
20260506122703 54 75 0.0 0.0 0.00 0.00 0.00 93 1016.6
20260506122201 54 75 0.0 1.0 0.00 0.00 0.00 93 1016.8
20260506121659 54 28 1.0 1.0 0.00 0.00 0.00 94 1016.7
20260506121155 54 96 1.0 1.0 0.00 0.00 0.00 95 1016.8
20260506120653 54 97 0.0 1.0 0.00 0.00 0.00 95 1016.6
20260506120150 54 297 1.0 1.0 0.00 0.00 0.00 95 1017.0
20260506115648 54 343 0.0 0.0 0.00 0.00 0.00 95 1016.6
20260506115146 54 343 1.0 1.0 0.00 0.00 0.00 96 1016.6
20260506114643 54 74 0.0 0.0 0.00 0.00 0.00 96 1016.4
20260506114141 54 70 0.0 0.0 0.00 0.00 0.00 96 1016.2
20260506113639 54 81 1.0 1.0 0.00 0.00 0.00 96 1016.1
20260506113136 54 77 0.0 1.0 0.00 0.00 0.00 96 1016.2
20260506112632 54 52 0.0 1.0 0.00 0.00 0.00 96 1016.3
20260506112130 54 301 1.0 1.0 0.00 0.00 0.00 96 1016.2
20260506111627 54 342 2.0 2.0 0.00 0.00 0.00 96 1015.7
20260506111125 54 332 1.0 2.0 0.00 0.00 0.00 96 1016.1
20260506110622 54 86 1.0 1.0 0.00 0.00 0.00 96 1016.1
20260506110119 54 45 0.0 1.0 0.00 0.00 0.00 96 1016.4
20260506105616 53 126 1.0 1.0 0.00 0.00 0.00 97 1016.2
20260506105113 53 163 0.0 0.0 0.00 0.00 0.00 97 1015.9
20260506104611 53 163 0.0 0.0 0.00 0.00 0.00 97 1016.4
20260506104108 53 164 0.0 0.0 0.00 0.00 0.00 97 1016.3
20260506103605 53 164 0.0 1.0 0.00 0.00 0.00 97 1016.2
20260506103102 53 78 1.0 1.0 0.00 0.00 0.00 97 1015.5
20260506102600 53 117 0.0 1.0 0.00 0.00 0.00 97 1015.9
20260506102058 53 90 0.0 0.0 0.00 0.00 0.00 97 1016.0
20260506101554 53 118 0.0 0.0 0.00 0.00 0.00 97 1016.0
20260506101051 53 102 0.0 0.0 0.00 0.00 0.00 96 1015.6
20260506100549 53 107 0.0 0.0 0.00 0.00 0.00 96 1015.7
20260506100047 53 123 1.0 1.0 0.00 0.00 0.00 96 1015.6
20260506095546 53 124 1.0 1.0 0.00 0.00 0.00 96 1015.5
20260506095042 53 113 0.0 0.0 0.00 0.00 0.00 96 1015.7
20260506094539 53 107 0.0 0.0 0.00 0.00 0.00 96 1015.8
20260506094037 53 107 0.0 1.0 0.00 0.00 0.00 96 1015.8
20260506093536 53 99 0.0 0.0 0.00 0.00 0.00 96 1015.8
20260506093033 53 113 1.0 1.0 0.00 0.00 0.00 96 1015.7
20260506092530 53 110 1.0 1.0 0.00 0.00 0.00 96 1015.5
20260506092027 52 115 0.0 0.0 0.00 0.00 0.00 96 1015.8
20260506091525 52 114 0.0 0.0 0.00 0.00 0.00 95 1015.9
20260506091022 52 118 0.0 0.0 0.00 0.00 0.00 95 1015.8
20260506090520 53 102 0.0 0.0 0.00 0.00 0.00 95 1016.0
20260506090016 53 113 0.0 0.0 0.00 0.00 0.00 95 1015.6
20260506085513 53 130 2.0 2.0 0.00 0.00 0.00 95 1015.8
20260506085009 53 124 1.0 1.0 0.00 0.00 0.00 95 1015.8
20260506084506 53 126 1.0 2.0 0.00 0.00 0.00 94 1016.0
20260506084002 53 116 0.0 0.0 0.00 0.00 0.00 94 1016.2
20260506083500 53 109 0.0 0.0 0.00 0.00 0.00 94 1016.0
20260506082957 53 93 0.0 0.0 0.00 0.00 0.00 94 1016.1
20260506082454 53 99 0.0 0.0 0.00 0.00 0.00 94 1016.2
20260506081949 53 102 0.0 0.0 0.00 0.00 0.00 94 1016.2
20260506081448 53 99 0.0 0.0 0.00 0.00 0.00 95 1016.4
20260506080945 54 92 0.0 0.0 0.00 0.00 0.00 95 1016.4
20260506080442 54 140 0.0 0.0 0.00 0.00 0.00 95 1016.3
20260506073426 55 140 0.0 0.0 0.00 0.00 0.00 95 1016.8
20260506072923 55 141 0.0 0.0 0.00 0.00 0.00 95 1016.9
20260506072420 55 84 1.0 1.0 0.00 0.00 0.00 95 1016.9
20260506071918 55 144 0.0 0.0 0.00 0.00 0.00 95 1016.9
20260506071416 55 100 1.0 1.0 0.00 0.00 0.00 95 1016.8
20260506070912 55 108 0.0 0.0 0.00 0.00 0.00 95 1016.8
20260506070409 55 131 0.0 0.0 0.00 0.00 0.00 95 1016.7
20260506062347 56 99 0.0 0.0 0.00 0.00 0.00 96 1017.2
20260506061842 56 113 0.0 0.0 0.00 0.00 0.00 96 1017.2
20260506061339 56 104 0.0 0.0 0.00 0.00 0.00 95 1017.3
20260506060837 56 112 0.0 0.0 0.00 0.00 0.00 95 1017.0
20260506060335 56 117 0.0 0.0 0.00 0.00 0.00 95 1017.1
20260506051307 57 122 0.0 0.0 0.00 0.00 0.00 94 1017.4
20260506050805 57 116 0.0 0.0 0.00 0.00 0.00 93 1017.3
20260506050302 57 113 0.0 0.0 0.00 0.00 0.00 93 1017.4
20260506044752 58 107 1.0 1.0 0.00 0.00 0.00 91 1017.3
20260506044250 58 127 1.0 1.0 0.00 0.00 0.00 91 1017.4
20260506043747 58 102 1.0 1.0 0.00 0.00 0.00 91 1017.5
20260506043244 58 105 0.0 0.0 0.00 0.00 0.00 90 1017.7
20260506042743 58 105 0.0 0.0 0.00 0.00 0.00 90 1017.7
20260506042241 59 311 1.0 1.0 0.00 0.00 0.00 89 1017.3
20260506041739 59 311 0.0 0.0 0.00 0.00 0.00 88 1017.4
20260506041236 59 76 0.0 0.0 0.00 0.00 0.00 88 1017.1
20260506040734 59 84 0.0 0.0 0.00 0.00 0.00 88 1017.2
20260506040230 59 37 3.0 3.0 0.00 0.00 0.00 87 1017.6
20260506035727 60 301 3.0 3.0 0.00 0.05 0.05 87 1017.4
20260506035224 60 2 3.0 5.0 0.00 0.05 0.05 87 1017.2
20260506034721 60 318 3.0 3.0 0.00 0.05 0.05 87 1017.2
20260506034218 60 351 5.0 7.0 0.00 0.05 0.05 88 1017.0
20260506033715 60 336 3.0 6.0 0.00 0.05 0.05 88 1017.0
20260506033212 61 15 3.0 5.0 0.00 0.05 0.05 88 1016.8
20260506032709 61 345 3.0 5.0 0.00 0.05 0.05 86 1016.6
20260506032206 62 79 1.0 1.0 0.00 0.05 0.05 85 1016.7
20260506031703 62 339 3.0 5.0 0.00 0.05 0.05 84 1016.7
20260506031200 61 68 1.0 1.0 0.05 0.05 0.05 87 1016.6
20260506030658 60 171 0.0 0.0 0.05 0.05 0.05 92 1017.1
20260506030155 60 165 0.0 0.0 0.00 0.04 0.04 92 1017.2
20260506025652 60 159 0.0 0.0 0.00 0.04 0.04 92 1016.8
20260506025148 60 134 1.0 1.0 0.00 0.04 0.04 91 1016.5
20260506024646 61 110 1.0 1.0 0.00 0.04 0.04 91 1016.3
20260506024142 61 145 0.0 1.0 0.00 0.04 0.04 90 1016.4
20260506023638 61 123 2.0 2.0 0.07 0.04 0.04 89 1016.3
20260506023136 61 100 0.0 1.0 0.07 0.04 0.04 87 1016.6
20260506022633 62 100 0.0 0.0 0.00 0.03 0.03 85 1016.5
20260506022130 63 98 1.0 1.0 0.00 0.03 0.03 82 1016.3
20260506021628 63 118 3.0 3.0 0.00 0.03 0.03 80 1016.3
20260506021125 63 97 0.0 0.0 0.00 0.03 0.03 79 1016.5
20260506020622 63 104 2.0 2.0 0.00 0.03 0.03 79 1016.3
20260506020120 62 110 1.0 1.0 0.00 0.03 0.03 83 1016.7
20260506015617 63 130 2.0 2.0 0.00 0.03 0.03 82 1016.5
20260506015114 64 126 2.0 2.0 0.00 0.03 0.03 79 1016.3
20260506014612 63 110 3.0 3.0 0.00 0.03 0.03 77 1016.2
20260506014106 63 124 2.0 2.0 0.00 0.03 0.03 80 1016.2
20260506013605 64 135 3.0 3.0 0.00 0.03 0.03 77 1016.3
20260506013102 64 125 3.0 3.0 0.00 0.03 0.03 76 1016.5
20260506012558 64 135 3.0 3.0 0.00 0.03 0.03 78 1016.0
20260506012054 64 109 1.0 1.0 0.00 0.03 0.03 78 1015.7
20260506011553 64 120 2.0 2.0 0.00 0.03 0.03 76 1015.8
20260506011048 64 129 2.0 2.0 0.00 0.03 0.03 77 1016.0
20260506010542 65 99 1.0 2.0 0.00 0.03 0.03 74 1015.9
20260506010038 65 122 2.0 2.0 0.00 0.03 0.03 72 1015.9
20260506005535 65 149 1.0 1.0 0.00 0.03 0.03 72 1016.0
20260506005031 65 163 1.0 1.0 0.00 0.03 0.03 72 1015.9
20260506004529 64 125 1.0 1.0 0.00 0.03 0.03 74 1015.8
20260506004025 64 132 3.0 3.0 0.00 0.03 0.03 75 1015.5
20260506003522 63 139 2.0 2.0 0.00 0.03 0.03 77 1015.5
20260506003018 63 116 3.0 3.0 0.00 0.03 0.03 77 1015.3
20260506002514 63 121 3.0 3.0 0.00 0.03 0.03 77 1015.2
20260506002010 64 149 4.0 5.0 0.00 0.03 0.03 77 1015.0
20260506001507 64 138 3.0 3.0 0.00 0.03 0.03 77 1015.0
20260506001004 64 111 1.0 1.0 0.00 0.03 0.03 75 1015.1
20260506000501 64 110 2.0 2.0 0.00 0.03 0.03 74 1015.3
20260505235958 65 126 1.0 1.0 0.00 0.03 0.03 72 1015.2
20260505235456 65 342 0.0 0.0 0.00 0.03 0.03 71 1015.1
20260505234952 65 115 1.0 1.0 0.00 0.03 0.03 72 1014.9
20260505234450 65 214 1.0 1.0 0.00 0.03 0.03 71 1014.6
20260505233947 65 118 7.0 8.0 0.00 0.03 0.03 74 1014.4
20260505233444 65 161 2.0 2.0 0.00 0.03 0.03 73 1014.7
20260505232941 66 137 3.0 3.0 0.00 0.03 0.03 71 1014.6
20260505232440 65 107 3.0 5.0 0.00 0.03 0.03 71 1014.4
20260505231936 65 141 3.0 3.0 0.00 0.03 0.03 71 1014.3
20260505231433 65 132 4.0 5.0 0.00 0.03 0.03 72 1014.8
20260505230932 65 125 4.0 5.0 0.00 0.03 0.03 72 1014.7
20260505230429 66 117 3.0 3.0 0.00 0.03 0.03 71 1014.9
20260505225925 66 104 1.0 1.0 0.00 0.03 0.03 70 1015.2
20260505225423 66 116 1.0 2.0 0.00 0.03 0.03 69 1015.0
20260505224918 66 148 1.0 1.0 0.00 0.03 0.03 70 1014.8
20260505224416 66 99 0.0 0.0 0.00 0.03 0.03 68 1014.9
20260505223912 66 69 0.0 0.0 0.00 0.03 0.03 66 1015.2
20260505223410 66 111 1.0 1.0 0.00 0.03 0.03 68 1015.2
20260505222905 66 76 2.0 2.0 0.00 0.03 0.03 68 1015.1
20260505222402 66 326 3.0 3.0 0.00 0.03 0.03 66 1015.4
20260505221859 67 5 2.0 2.0 0.00 0.03 0.03 66 1015.1